This demonstration page uses our WeatherBlox Daily Observations layout. Learn more.

40.92945, -100.16068

Hourly Observations for December 19, 2015

Temp ( °F °C ) Dew Point ( °F °C ) Humidity (%) Winds ( mph kmh ) Pressure ( in mb ) Visibility ( mi km ) Precip ( " mm )
12:15 am 00:15 Clear 12 -10.9 10 -12.2 90 90 ESE 3 6 30.39 1029 10 16.0934 N/A
12:35 am 00:35 Clear 14 -10 12 -11.3 90 90 Calm 30.39 1029 10 16.0934 N/A
12:55 am 00:55 Clear 11 -11.5 8 -13.1 88 88 SSE 3 6 30.39 1029 10 16.0934 N/A
1:15 am 01:15 Clear 13 -10.8 10 -12.4 88 88 Calm 30.36 1028 10 16.0934 N/A
1:35 am 01:35 Clear 13 -10.7 10 -12.1 90 90 Calm 30.36 1028 10 16.0934 N/A
1:55 am 01:55 Clear 12 -11.1 10 -12.5 90 90 Calm 30.36 1028 10 16.0934 N/A
2:15 am 02:15 Clear 11 -11.5 9 -12.8 90 90 Calm 30.36 1028 10 16.0934 N/A
2:35 am 02:35 Clear 11 -11.4 9 -12.7 90 90 Calm 30.36 1028 10 16.0934 N/A
2:55 am 02:55 Clear 12 -10.9 10 -12.1 91 91 Calm 30.36 1028 10 16.0934 N/A
3:15 am 03:15 Clear 12 -10.9 10 -12.2 90 90 Calm 30.36 1028 10 16.0934 N/A
3:35 am 03:35 Clear 12 -11.1 10 -12.4 90 90 Calm 30.36 1028 10 16.0934 N/A
3:55 am 03:55 Clear 13 -10.5 11 -11.8 90 90 Calm 30.36 1028 10 16.0934 N/A
4:15 am 04:15 Clear 13 -10.3 11 -11.7 90 90 Calm 30.33 1027 10 16.0934 N/A
4:35 am 04:35 Clear 14 -10.1 11 -11.4 90 90 Calm 30.33 1027 10 16.0934 N/A
4:55 am 04:55 Clear 13 -10.7 11 -11.9 91 91 E 5 7 30.33 1027 10 16.0934 N/A
5:15 am 05:15 Clear 12 -11.1 10 -12.5 90 90 E 5 7 30.33 1027 10 16.0934 N/A
5:35 am 05:35 Clear 15 -9.3 13 -10.4 92 92 SE 5 7 30.3 1026 10 16.0934 N/A
5:55 am 05:55 Clear 17 -8.6 14 -10 90 90 SE 5 7 30.3 1026 10 16.0934 0 0
6:15 am 06:15 Clear 12 -10.9 10 -12.4 89 89 N 5 7 30.33 1027 10 16.0934 N/A
6:35 am 06:35 Clear 11 -11.5 9 -13 89 89 NNE 3 6 30.33 1027 10 16.0934 N/A
6:55 am 06:55 Clear 12 -11.1 9 -12.6 89 89 E 3 6 30.33 1027 10 16.0934 N/A
7:15 am 07:15 Clear 11 -11.6 9 -13 89 89 ESE 3 6 30.33 1027 10 16.0934 N/A
7:35 am 07:35 Clear 12 -10.9 10 -12.2 90 90 SSE 3 6 30.33 1027 10 16.0934 N/A
7:55 am 07:55 Clear 11 -11.8 8 -13.3 89 89 Calm 30.33 1027 10 16.0934 N/A
8:15 am 08:15 Sunny 13 -10.4 11 -11.6 91 91 Calm 30.33 1027 10 16.0934 N/A
8:35 am 08:35 Sunny 13 -10.8 10 -12.1 90 90 Calm 30.33 1027 10 16.0934 N/A
8:55 am 08:55 Sunny 15 -9.7 12 -11 90 90 Calm 30.33 1027 10 16.0934 N/A
9:15 am 09:15 Sunny 16 -9.1 13 -10.4 90 90 Calm 30.3 1026 10 16.0934 N/A
9:35 am 09:35 Sunny 20 -6.9 18 -8 92 92 Calm 30.27 1025 10 16.0934 N/A
9:55 am 09:55 Sunny 21 -6.2 18 -7.6 90 90 SE 3 6 30.27 1025 10 16.0934 N/A
10:15 am 10:15 Sunny 26 -3.5 23 -5.1 89 89 SSE 5 7 30.24 1024 10 16.0934 N/A
10:35 am 10:35 Sunny 28 -2.5 24 -4.6 86 86 SSE 3 6 30.24 1024 10 16.0934 N/A
10:55 am 10:55 Sunny 29 -1.6 24 -4.3 82 82 SSE 3 6 30.21 1023 10 16.0934 N/A
11:15 am 11:15 Sunny 31 -0.8 25 -3.8 80 80 SSE 5 7 30.18 1022 10 16.0934 N/A
11:35 am 11:35 Sunny 32 0 26 -3.1 80 80 SSE 5 7 30.18 1022 10 16.0934 N/A
11:55 am 11:55 Sunny 34 0.9 28 -2.3 79 79 S 6 9 30.12 1020 10 16.0934 0.01 0.254
12:15 pm 12:15 Sunny 35 1.9 30 -1.3 80 80 S 8 13 30.12 1020 10 16.0934 N/A
12:35 pm 12:35 Sunny 36 2.2 29 -1.4 77 77 S 8 13 30.12 1020 10 16.0934 N/A
12:55 pm 12:55 Sunny 37 2.5 29 -1.5 75 75 S 9 15 30.12 1020 10 16.0934 N/A
1:15 pm 13:15 Sunny 37 2.7 30 -1.2 76 76 SSE 7 11 30.12 1020 10 16.0934 N/A
1:35 pm 13:35 Sunny 38 3.1 30 -1 75 75 S 7 11 30.09 1019 10 16.0934 N/A
1:55 pm 13:55 Sunny 38 3.3 31 -0.5 76 76 S 8 13 30.09 1019 10 16.0934 N/A
2:15 pm 14:15 Sunny 38 3.6 31 -0.3 76 76 S 8 13 30.06 1018 10 16.0934 N/A
2:35 pm 14:35 Sunny 39 4 32 0 75 75 S 7 11 30.03 1017 10 16.0934 N/A
2:55 pm 14:55 Sunny 39 4 32 0 75 75 S 3 6 30.03 1017 10 16.0934 N/A
3:15 pm 15:15 Sunny 40 4.5 33 0.5 76 76 Calm 30.03 1017 10 16.0934 N/A
3:35 pm 15:35 Sunny 41 5.2 33 0.7 73 73 SSE 3 6 30 1016 10 16.0934 N/A
3:55 pm 15:55 Sunny 40 4.6 33 0.6 76 76 SE 3 6 30 1016 10 16.0934 N/A
4:15 pm 16:15 Sunny 40 4.7 33 0.5 74 74 SSE 8 13 30 1016 10 16.0934 N/A
4:35 pm 16:35 Sunny 40 4.7 33 0.6 75 75 SSE 8 13 30 1016 10 16.0934 N/A
4:55 pm 16:55 Sunny 39 4 33 0.4 78 78 SSE 8 13 30 1016 10 16.0934 N/A
5:15 pm 17:15 Clear 38 3.5 32 0.1 79 79 SSE 8 13 30 1016 10 16.0934 N/A
5:35 pm 17:35 Clear 40 4.2 33 0.4 77 77 SSE 10 17 30 1016 10 16.0934 N/A
5:55 pm 17:55 Clear 40 4.3 32 0.1 74 74 SSE 12 19 29.97 1015 10 16.0934 N/A
6:15 pm 18:15 Clear 38 3.6 32 0 78 78 SSE 10 17 29.97 1015 10 16.0934 N/A
6:35 pm 18:35 Clear 38 3.4 32 0 79 79 SSE 8 13 29.97 1015 10 16.0934 N/A
6:55 pm 18:55 Clear 38 3.2 32 0 80 80 SSE 13 20 29.97 1015 10 16.0934 N/A
7:15 pm 19:15 Clear 38 3.5 32 0 78 78 SSE 10 17 29.97 1015 10 16.0934 N/A
7:35 pm 19:35 Clear 38 3.5 32 -0.1 78 78 SSE 9 15 29.97 1015 10 16.0934 N/A
7:55 pm 19:55 Clear 38 3.2 31 -0.3 78 78 S 10 17 30.03 1017 10 16.0934 N/A
8:15 pm 20:15 Clear 38 3.1 31 -0.3 79 79 S 12 19 29.97 1015 10 16.0934 N/A
8:35 pm 20:35 Clear 38 3.2 32 -0.1 79 79 S 15 24 29.97 1015 10 16.0934 N/A
8:55 pm 20:55 Clear 37 2.9 32 -0.2 80 80 S 15 24 29.97 1015 10 16.0934 N/A
9:15 pm 21:15 Clear 37 2.7 32 -0.1 82 82 S 17 28 29.97 1015 10 16.0934 N/A
9:35 pm 21:35 Clear 37 2.6 32 -0.2 82 82 S 13 20 29.97 1015 10 16.0934 N/A
9:55 pm 21:55 Clear 36 2.4 31 -0.3 83 83 S 10 17 29.97 1015 10 16.0934 N/A
10:15 pm 22:15 Clear 36 2 31 -0.4 84 84 S 10 17 29.97 1015 10 16.0934 N/A
10:35 pm 22:35 Clear 36 2 32 -0.1 86 86 SSE 8 13 29.97 1015 10 16.0934 N/A
10:55 pm 22:55 Clear 35 1.8 32 -0.2 87 87 SSE 3 6 29.94 1014 10 16.0934 N/A
11:15 pm 23:15 Clear 35 1.5 31 -0.5 87 87 SSE 8 13 29.88 1012 10 16.0934 N/A
11:35 pm 23:35 Clear 34 1.3 31 -0.4 89 89 SSE 6 9 29.91 1013 10 16.0934 N/A
11:55 pm 23:55 Clear 33 0.8 31 -0.7 90 90 SSE 6 9 29.91 1013 10 16.0934 N/A

Powered by AerisWeather